Torna al catalogo

STARLINK-32532

AttivoComunicazioniVLEO
NORAD 62156·PAYLOAD·🇺🇸 United States

Lanciato Nov 30, 2024 da Cape Canaveral Space Force Station

Loading…

Prossimi Passaggi (prossime 24 ore)

TLE

AggiornatoSource: CelesTrak SupGP

Epoca: Sep 14, 2026, 22:30 UTC

1 62156C 24224T   26257.93798611 -.00044377  00000+0 -16072-2 0  2571
2 62156  43.0014 169.1936 0001317 267.6394 130.4532 15.27602755    17

Traccia STARLINK-32532 in tempo reale con AllMySat

Download on the App Store